EW3714 Weather Reports


Display with metric or nautical units.
time (UTC)temp
F
wind
direction
speed
MPH
gust
MPH
rain 1hr
in
rain 24hr
in
rain mn
in
humidity
%
barometer
mb
20260905110944 78 126 0.0 1.0 0.00 0.00 0.00 91 1014.3
20260905110443 78 30 0.0 0.0 0.00 0.00 0.00 90 1014.2
20260905105943 78 92 0.0 1.0 0.00 0.00 0.00 91 1014.0
20260905105438 78 268 0.0 1.0 0.00 0.00 0.00 90 1014.2
20260905104937 78 347 0.0 2.0 0.00 0.00 0.00 91 1014.2
20260905104433 78 348 0.0 1.0 0.00 0.00 0.00 91 1014.0
20260905103932 78 310 0.0 0.0 0.00 0.00 0.00 91 1014.0
20260905103428 78 333 0.0 0.0 0.00 0.00 0.00 90 1014.0
20260905102924 78 333 0.0 1.0 0.00 0.00 0.00 90 1014.2
20260905102420 78 343 0.0 1.0 0.00 0.00 0.00 90 1014.2
20260905101915 78 89 1.0 1.0 0.00 0.00 0.00 90 1014.2
20260905101414 79 249 0.0 1.0 0.00 0.00 0.00 90 1014.2
20260905100908 79 25 0.0 1.0 0.00 0.00 0.00 90 1014.2
20260905100404 79 309 0.0 0.0 0.00 0.00 0.00 89 1014.0
20260905095903 79 6 0.0 0.0 0.00 0.00 0.00 89 1013.9
20260905095359 79 32 0.0 0.0 0.00 0.00 0.00 89 1014.0
20260905094858 79 60 0.0 0.0 0.00 0.00 0.00 89 1013.9
20260905094354 79 322 0.0 0.0 0.00 0.00 0.00 89 1013.9
20260905093852 79 333 0.0 0.0 0.00 0.00 0.00 89 1013.9
20260905093348 78 22 0.0 0.0 0.00 0.00 0.00 89 1014.0
20260905092844 79 333 0.0 1.0 0.00 0.00 0.00 89 1014.0
20260905092344 79 343 0.0 0.0 0.00 0.00 0.00 89 1014.0
20260905091839 79 37 0.0 0.0 0.00 0.00 0.00 89 1013.9
20260905091334 79 18 0.0 0.0 0.00 0.00 0.00 89 1013.9
20260905090832 79 322 0.0 0.0 0.00 0.00 0.00 88 1014.0
20260905090328 79 230 0.0 1.0 0.00 0.00 0.00 88 1013.9
20260905085827 79 62 0.0 0.0 0.00 0.00 0.00 88 1013.9
20260905085322 79 76 0.0 2.0 0.00 0.00 0.00 88 1014.1
20260905084818 79 50 0.0 0.0 0.00 0.00 0.00 87 1014.2
20260905084317 79 297 0.0 0.0 0.00 0.00 0.00 87 1014.2
20260905083812 79 322 0.0 2.0 0.00 0.00 0.00 87 1014.2
20260905083308 79 62 0.0 1.0 0.00 0.00 0.00 87 1014.1
20260905082803 80 12 1.0 1.0 0.00 0.00 0.00 87 1014.3
20260905082300 80 76 0.0 1.0 0.00 0.00 0.00 87 1014.2
20260905081759 80 62 0.0 2.0 0.00 0.00 0.00 86 1014.1
20260905081255 80 0 0.0 2.0 0.00 0.00 0.00 86 1014.4
20260905080754 80 322 0.0 1.0 0.00 0.00 0.00 85 1014.4
20260905080254 80 13 0.0 1.0 0.00 0.00 0.00 86 1014.3
20260905075753 80 50 0.0 2.0 0.00 0.00 0.00 86 1014.4
20260905075252 80 154 0.0 1.0 0.00 0.00 0.00 85 1014.4
20260905074751 80 15 0.0 3.0 0.00 0.00 0.00 85 1014.3
20260905074248 80 13 0.0 2.0 0.00 0.00 0.00 85 1014.5
20260905073743 80 15 0.0 2.0 0.00 0.00 0.00 85 1014.4
20260905073238 80 50 0.0 1.0 0.00 0.00 0.00 85 1014.3
20260905072737 80 321 0.0 0.0 0.00 0.00 0.00 84 1014.4
20260905072233 80 13 0.0 2.0 0.00 0.00 0.00 84 1014.5
20260905071729 80 352 0.0 1.0 0.00 0.00 0.00 84 1014.5
20260905071225 80 60 0.0 1.0 0.00 0.00 0.00 84 1014.6
20260905070720 80 25 0.0 1.0 0.00 0.00 0.00 83 1014.8
20260905070216 80 218 0.0 2.0 0.00 0.00 0.00 82 1014.8
20260905065714 80 6 1.0 1.0 0.00 0.00 0.00 83 1014.6
20260905065209 80 15 0.0 1.0 0.00 0.00 0.00 82 1014.8
20260905064704 81 343 0.0 2.0 0.00 0.00 0.00 82 1014.6
20260905064200 81 11 0.0 0.0 0.00 0.00 0.00 81 1014.8
20260905063658 81 135 0.0 0.0 0.00 0.00 0.00 81 1014.6
20260905063155 81 49 0.0 0.0 0.00 0.00 0.00 81 1014.5
20260905062650 81 24 0.0 0.0 0.00 0.00 0.00 81 1014.9
20260905062149 81 333 0.0 2.0 0.00 0.00 0.00 80 1014.8
20260905061644 81 22 0.0 0.0 0.00 0.00 0.00 80 1015.1
20260905061144 81 352 0.0 0.0 0.00 0.00 0.00 79 1015.0
20260905060639 81 50 0.0 0.0 0.00 0.00 0.00 79 1014.9
20260905060136 81 50 0.0 1.0 0.00 0.00 0.00 79 1014.9
20260905055634 81 7 1.0 2.0 0.00 0.00 0.00 78 1014.8
20260905055130 82 37 0.0 0.0 0.00 0.00 0.00 78 1014.9
20260905054625 82 37 0.0 1.0 0.00 0.00 0.00 77 1014.9
20260905054121 82 29 0.0 0.0 0.00 0.00 0.00 77 1014.9
20260905053620 82 66 0.0 0.0 0.00 0.00 0.00 77 1014.9
20260905053115 82 22 0.0 2.0 0.00 0.00 0.00 76 1014.9
20260905052615 82 62 0.0 1.0 0.00 0.00 0.00 76 1014.8
20260905052109 82 29 0.0 2.0 0.00 0.00 0.00 76 1015.1
20260905051605 82 5 0.0 1.0 0.00 0.00 0.00 75 1015.1
20260905051102 82 37 0.0 1.0 0.00 0.00 0.00 75 1015.0
20260905050557 82 15 0.0 0.0 0.00 0.00 0.00 75 1015.0
20260905050055 82 23 0.0 1.0 0.00 0.00 0.00 74 1015.1
20260905045554 82 44 0.0 0.0 0.00 0.00 0.00 74 1014.9
20260905045049 82 20 0.0 1.0 0.00 0.00 0.00 74 1015.0
20260905044549 82 49 0.0 1.0 0.00 0.00 0.00 74 1014.6
20260905044044 82 205 0.0 0.0 0.00 0.00 0.00 73 1015.0
20260905043543 82 333 0.0 0.0 0.00 0.00 0.00 73 1014.9
20260905043039 82 13 0.0 1.0 0.00 0.00 0.00 73 1014.9
20260905042537 82 24 0.0 0.0 0.00 0.00 0.00 73 1014.9
20260905042032 83 53 0.0 1.0 0.00 0.00 0.00 73 1014.8
20260905041528 83 200 0.0 1.0 0.00 0.00 0.00 72 1014.8
20260905041024 83 327 0.0 2.0 0.00 0.00 0.00 72 1014.8
20260905040522 83 42 0.0 1.0 0.00 0.00 0.00 73 1014.9
20260905040021 83 50 0.0 1.0 0.00 0.00 0.00 72 1014.9
20260905035517 83 322 0.0 0.0 0.00 0.00 0.00 71 1014.8
20260905035015 83 77 0.0 1.0 0.00 0.00 0.00 73 1014.9
20260905034510 83 43 0.0 1.0 0.00 0.00 0.00 71 1014.8
20260905034009 83 34 0.0 0.0 0.00 0.00 0.00 71 1014.9
20260905033509 84 33 1.0 1.0 0.00 0.00 0.00 70 1014.6
20260905033004 84 26 1.0 1.0 0.00 0.00 0.00 70 1014.6
20260905032459 84 55 0.0 0.0 0.00 0.00 0.00 70 1014.5
20260905031954 84 113 0.0 0.0 0.00 0.00 0.00 68 1014.6
20260905031450 84 62 0.0 1.0 0.00 0.00 0.00 68 1014.6
20260905030944 84 310 0.0 3.0 0.00 0.00 0.00 67 1014.4
20260905030440 84 129 0.0 1.0 0.00 0.00 0.00 67 1014.6
20260905025939 84 63 0.0 0.0 0.00 0.00 0.00 68 1014.6
20260905025434 84 154 0.0 1.0 0.00 0.00 0.00 67 1014.4
20260905024931 84 50 0.0 0.0 0.00 0.00 0.00 68 1014.3
20260905024431 84 25 0.0 1.0 0.00 0.00 0.00 69 1014.2
20260905023927 84 44 0.0 0.0 0.00 0.00 0.00 70 1014.2
20260905023422 84 34 0.0 0.0 0.00 0.00 0.00 69 1014.2
20260905022921 84 25 0.0 0.0 0.00 0.00 0.00 69 1014.1
20260905022417 84 62 0.0 0.0 0.00 0.00 0.00 68 1014.2
20260905021912 84 37 0.0 0.0 0.00 0.00 0.00 69 1014.1
20260905021411 84 44 0.0 0.0 0.00 0.00 0.00 69 1014.0
20260905020907 85 0 0.0 0.0 0.00 0.00 0.00 69 1013.9
20260905020406 85 75 0.0 0.0 0.00 0.00 0.00 69 1014.0
20260905015906 85 124 0.0 0.0 0.00 0.00 0.00 68 1013.9
20260905015404 85 62 0.0 0.0 0.00 0.00 0.00 68 1014.0
20260905014859 86 22 0.0 0.0 0.00 0.00 0.00 67 1013.8
20260905014354 86 15 0.0 0.0 0.00 0.00 0.00 67 1013.8
20260905013855 86 13 0.0 1.0 0.00 0.00 0.00 67 1013.8
20260905013352 86 333 0.0 1.0 0.00 0.00 0.00 67 1013.8
20260905012851 86 309 0.0 0.0 0.00 0.00 0.00 67 1013.7
20260905012347 86 55 0.0 1.0 0.00 0.00 0.00 66 1013.6
20260905011844 86 309 0.0 1.0 0.00 0.00 0.00 66 1013.6
20260905011339 87 348 0.0 1.0 0.00 0.00 0.00 65 1013.6
20260905010835 87 76 0.0 1.0 0.00 0.00 0.00 66 1013.5
20260905010329 87 315 0.0 0.0 0.00 0.00 0.00 64 1013.4
20260905005826 87 25 0.0 1.0 0.00 0.00 0.00 65 1013.4
20260905005322 87 199 0.0 2.0 0.00 0.00 0.00 64 1013.2
20260905004822 88 336 0.0 0.0 0.00 0.00 0.00 64 1013.3
20260905004316 88 333 0.0 0.0 0.00 0.00 0.00 63 1013.1
20260905003812 88 195 0.0 2.0 0.00 0.00 0.00 62 1013.1
20260905003308 88 19 0.0 2.0 0.00 0.00 0.00 61 1013.1
20260905002803 89 352 0.0 1.0 0.00 0.00 0.00 59 1013.0
20260905002306 89 315 0.0 2.0 0.00 0.00 0.00 59 1013.0
20260905001758 89 263 1.0 1.0 0.00 0.00 0.00 58 1012.9
20260905001257 89 293 0.0 2.0 0.00 0.00 0.00 58 1012.9
20260905000753 89 336 0.0 1.0 0.00 0.00 0.00 58 1013.1
20260905000248 90 0 0.0 0.0 0.00 0.00 0.00 57 1013.0
20260904235744 90 22 0.0 1.0 0.00 0.00 0.00 57 1012.8
20260904235243 90 24 1.0 2.0 0.00 0.00 0.00 57 1012.8
20260904234738 90 203 0.0 3.0 0.00 0.00 0.00 57 1012.9
20260904234234 90 192 1.0 2.0 0.00 0.00 0.00 57 1012.9
20260904233729 90 223 1.0 2.0 0.00 0.00 0.00 57 1012.7
20260904233226 90 220 0.0 0.0 0.00 0.00 0.00 57 1012.9
20260904232722 90 185 0.0 1.0 0.00 0.00 0.00 58 1012.7
20260904232218 90 352 0.0 4.0 0.00 0.00 0.00 58 1013.1
20260904231713 91 241 1.0 2.0 0.00 0.00 0.00 56 1012.8
20260904231209 92 226 0.0 2.0 0.00 0.00 0.00 55 1012.8
20260904230708 92 166 0.0 2.0 0.00 0.00 0.00 55 1012.9
20260904230203 93 329 0.0 1.0 0.00 0.00 0.00 56 1012.9
20260904225702 94 280 0.0 2.0 0.00 0.00 0.00 54 1013.0
20260904225156 94 299 0.0 2.0 0.00 0.00 0.00 53 1012.7
20260904224650 95 216 0.0 2.0 0.00 0.00 0.00 47 1012.9
20260904224151 95 195 2.0 2.0 0.00 0.00 0.00 47 1012.7
20260904223650 94 7 2.0 2.0 0.00 0.00 0.00 48 1012.7
20260904223145 95 3 1.0 2.0 0.00 0.00 0.00 49 1013.0
20260904222641 94 135 0.0 2.0 0.00 0.00 0.00 47 1012.9
20260904222137 95 343 0.0 2.0 0.00 0.00 0.00 46 1012.7
20260904221636 95 26 0.0 2.0 0.00 0.00 0.00 47 1012.8
20260904221131 94 324 1.0 1.0 0.00 0.00 0.00 47 1012.9
20260904220626 93 89 0.0 2.0 0.00 0.00 0.00 46 1012.9
20260904220122 94 304 0.0 1.0 0.00 0.00 0.00 44 1013.0
20260904215621 94 208 1.0 3.0 0.00 0.00 0.00 43 1013.2
20260904215118 94 0 0.0 1.0 0.00 0.00 0.00 46 1013.1
20260904214617 94 235 0.0 2.0 0.00 0.00 0.00 47 1013.3
20260904214113 93 202 0.0 3.0 0.00 0.00 0.00 49 1013.3
20260904213611 94 210 1.0 3.0 0.00 0.00 0.00 49 1013.4
20260904213108 95 351 1.0 3.0 0.00 0.00 0.00 50 1013.4
20260904212608 94 326 0.0 3.0 0.00 0.00 0.00 51 1013.4
20260904212103 94 320 1.0 2.0 0.00 0.00 0.00 51 1013.6
20260904211602 93 13 2.0 3.0 0.00 0.00 0.00 50 1013.7
20260904211058 93 31 0.0 4.0 0.00 0.00 0.00 50 1013.5
20260904210557 94 0 2.0 3.0 0.00 0.00 0.00 53 1013.6
20260904210053 95 289 0.0 3.0 0.00 0.00 0.00 51 1013.7
20260904205548 96 14 1.0 2.0 0.00 0.00 0.00 49 1013.8
20260904205045 96 311 0.0 3.0 0.00 0.00 0.00 48 1013.9
20260904204541 96 296 0.0 3.0 0.00 0.00 0.00 47 1014.0
20260904204036 96 240 0.0 2.0 0.00 0.00 0.00 45 1013.8
20260904203532 96 95 1.0 2.0 0.00 0.00 0.00 45 1014.0
20260904203028 96 243 1.0 1.0 0.00 0.00 0.00 46 1014.2
20260904202524 94 257 1.0 2.0 0.00 0.00 0.00 48 1014.4
20260904202020 94 246 0.0 2.0 0.00 0.00 0.00 48 1014.5
20260904201515 93 214 0.0 2.0 0.00 0.00 0.00 48 1014.5
20260904201011 94 346 1.0 2.0 0.00 0.00 0.00 48 1014.4
20260904200509 94 217 0.0 2.0 0.00 0.00 0.00 51 1014.5
20260904200004 94 268 1.0 2.0 0.00 0.00 0.00 54 1014.5
20260904195502 93 218 0.0 3.0 0.00 0.00 0.00 57 1014.8
20260904195001 93 279 2.0 2.0 0.00 0.00 0.00 58 1014.8
20260904194457 90 298 1.0 2.0 0.00 0.00 0.00 62 1014.6
20260904193951 90 104 0.0 3.0 0.00 0.00 0.00 65 1014.8
20260904193447 89 201 0.0 2.0 0.00 0.00 0.00 65 1014.8
20260904192942 89 279 0.0 1.0 0.00 0.00 0.00 66 1014.9
20260904192437 88 63 0.0 1.0 0.00 0.00 0.00 67 1014.8
20260904191933 88 15 0.0 1.0 0.00 0.00 0.00 67 1015.0
20260904191430 88 339 0.0 1.0 0.00 0.00 0.00 67 1015.1
20260904190926 88 25 0.0 1.0 0.00 0.00 0.00 66 1015.1
20260904190426 87 224 0.0 2.0 0.00 0.00 0.00 66 1015.5
20260904185923 87 343 0.0 1.0 0.00 0.00 0.00 70 1015.5
20260904185419 87 0 0.0 1.0 0.00 0.00 0.00 69 1015.5
20260904184918 88 89 0.0 0.0 0.00 0.00 0.00 69 1015.6
20260904184413 88 339 1.0 1.0 0.00 0.00 0.00 71 1015.5
20260904183908 88 235 0.0 2.0 0.00 0.00 0.00 69 1015.6
20260904183403 88 0 0.0 2.0 0.00 0.00 0.00 68 1015.5
20260904182900 87 333 0.0 1.0 0.00 0.00 0.00 70 1015.6
20260904182400 87 0 0.0 2.0 0.00 0.00 0.00 69 1015.6
20260904181855 88 19 0.0 2.0 0.00 0.00 0.00 70 1015.8
20260904181350 88 275 0.0 1.0 0.00 0.00 0.00 68 1015.7
20260904180845 88 48 0.0 2.0 0.00 0.00 0.00 69 1015.7
20260904180340 88 6 1.0 1.0 0.00 0.00 0.00 71 1015.8
20260904175839 89 284 0.0 0.0 0.00 0.00 0.00 70 1015.7
20260904175339 88 34 1.0 1.0 0.00 0.00 0.00 71 1015.8
20260904174838 88 322 0.0 1.0 0.00 0.00 0.00 73 1015.9
20260904174334 87 230 0.0 1.0 0.00 0.00 0.00 72 1016.0
20260904173830 87 25 0.0 1.0 0.00 0.00 0.00 73 1016.0
20260904173326 87 258 0.0 1.0 0.00 0.00 0.00 73 1016.0
20260904172822 87 342 1.0 1.0 0.00 0.00 0.00 73 1016.0
20260904172320 87 352 0.0 2.0 0.00 0.00 0.00 71 1016.1
20260904171816 87 76 0.0 2.0 0.00 0.00 0.00 70 1016.2
20260904171311 87 345 0.0 2.0 0.00 0.00 0.00 72 1016.0
20260904170807 87 311 0.0 1.0 0.00 0.00 0.00 72 1016.1
20260904170303 86 306 0.0 1.0 0.00 0.00 0.00 72 1016.2
20260904165802 86 321 0.0 2.0 0.00 0.00 0.00 72 1016.1
20260904165256 86 313 2.0 2.0 0.00 0.00 0.00 72 1016.2
20260904164756 86 16 2.0 2.0 0.00 0.00 0.00 72 1016.1
20260904164251 86 0 0.0 1.0 0.00 0.00 0.00 73 1016.0
20260904163748 85 44 1.0 2.0 0.00 0.00 0.00 75 1016.0
20260904163243 85 107 1.0 2.0 0.00 0.00 0.00 75 1016.1
20260904162742 85 54 1.0 2.0 0.00 0.00 0.00 75 1016.0
20260904162237 84 141 0.0 2.0 0.00 0.00 0.00 75 1016.0
20260904161732 84 129 0.0 2.0 0.00 0.00 0.00 76 1015.9
20260904161232 84 129 0.0 1.0 0.00 0.00 0.00 76 1016.1
20260904160728 84 21 0.0 2.0 0.00 0.00 0.00 77 1016.0
20260904160224 84 4 1.0 2.0 0.00 0.00 0.00 77 1015.8
20260904155723 84 93 0.0 4.0 0.00 0.00 0.00 77 1015.9
20260904155223 84 213 0.0 2.0 0.00 0.00 0.00 77 1015.7
20260904154722 84 338 1.0 3.0 0.00 0.00 0.00 79 1015.8
20260904154222 83 118 1.0 2.0 0.00 0.00 0.00 80 1015.7
20260904153717 83 81 0.0 2.0 0.00 0.00 0.00 80 1015.7
20260904153213 83 142 0.0 2.0 0.00 0.00 0.00 81 1015.9
20260904152709 83 87 1.0 3.0 0.00 0.00 0.00 81 1015.8
20260904152204 83 100 1.0 1.0 0.00 0.00 0.00 82 1015.6
20260904151659 82 80 0.0 2.0 0.00 0.00 0.00 82 1015.7
20260904151158 82 104 1.0 2.0 0.00 0.00 0.00 82 1015.6
20260904150654 82 54 0.0 2.0 0.00 0.00 0.00 83 1015.6
20260904150149 82 50 0.0 0.0 0.00 0.00 0.00 84 1015.6
20260904145647 82 34 0.0 2.0 0.00 0.00 0.00 84 1015.5
20260904145142 81 113 0.0 1.0 0.00 0.00 0.00 84 1015.4
20260904144638 81 347 0.0 0.0 0.00 0.00 0.00 85 1015.6
20260904144134 81 351 0.0 2.0 0.00 0.00 0.00 86 1015.6
20260904143630 81 44 0.0 1.0 0.00 0.00 0.00 86 1015.8
20260904143126 81 195 0.0 2.0 0.00 0.00 0.00 86 1015.7
20260904142622 81 107 2.0 3.0 0.00 0.00 0.00 87 1015.6
20260904142118 81 322 0.0 3.0 0.00 0.00 0.00 87 1015.5
20260904141612 81 9 0.0 2.0 0.00 0.00 0.00 87 1015.4
20260904141108 81 117 0.0 3.0 0.00 0.00 0.00 87 1015.3
20260904140604 81 170 0.0 2.0 0.00 0.00 0.00 87 1015.6
20260904140103 81 57 0.0 2.0 0.00 0.00 0.00 87 1015.7
20260904135603 81 75 1.0 1.0 0.00 0.00 0.00 88 1015.7
20260904135059 81 20 0.0 2.0 0.00 0.00 0.00 88 1015.5
20260904134554 80 92 0.0 2.0 0.00 0.00 0.00 87 1015.7
20260904134049 81 69 0.0 1.0 0.00 0.00 0.00 88 1015.6
20260904133549 80 95 1.0 2.0 0.00 0.00 0.00 88 1015.5
20260904133045 81 353 0.0 2.0 0.00 0.00 0.00 89 1015.6
20260904132545 80 25 0.0 1.0 0.00 0.00 0.00 89 1015.5
20260904132045 80 49 0.0 1.0 0.00 0.00 0.00 89 1015.6
20260904131544 80 304 0.0 1.0 0.00 0.00 0.00 89 1015.5
20260904131041 80 60 1.0 2.0 0.00 0.00 0.00 90 1015.5
20260904130540 80 15 0.0 1.0 0.00 0.00 0.00 91 1015.6
20260904130035 80 3 1.0 1.0 0.00 0.00 0.00 91 1015.5
20260904125532 80 12 1.0 2.0 0.00 0.00 0.00 91 1015.4
20260904125032 80 36 0.0 1.0 0.00 0.00 0.00 90 1015.5
20260904124527 80 6 0.0 1.0 0.00 0.00 0.00 90 1015.4
20260904124023 80 10 1.0 1.0 0.00 0.00 0.00 89 1015.3
20260904123522 81 41 1.0 3.0 0.00 0.00 0.00 88 1015.1
20260904123019 80 30 0.0 2.0 0.00 0.00 0.00 87 1015.0
20260904122518 80 6 0.0 1.0 0.00 0.00 0.00 87 1015.0
20260904122013 80 13 0.0 0.0 0.00 0.00 0.00 88 1014.9
20260904121509 80 308 0.0 1.0 0.00 0.00 0.00 87 1015.0
20260904121005 80 309 0.0 2.0 0.00 0.00 0.00 87 1014.6
20260904120501 80 36 0.0 2.0 0.00 0.00 0.00 87 1014.8
20260904120001 80 15 0.0 2.0 0.00 0.00 0.00 87 1014.8
20260904115457 80 11 1.0 2.0 0.00 0.00 0.00 87 1014.5
20260904114956 80 335 1.0 1.0 0.00 0.00 0.00 87 1014.5
20260904114452 80 279 0.0 2.0 0.00 0.00 0.00 87 1014.4
20260904113947 80 335 0.0 3.0 0.00 0.00 0.00 87 1014.4
20260904113446 80 269 0.0 2.0 0.00 0.00 0.00 86 1014.4
20260904112945 81 89 0.0 1.0 0.00 0.00 0.00 86 1014.3
20260904112441 81 343 0.0 1.0 0.00 0.00 0.00 86 1014.3
20260904111937 81 159 0.0 1.0 0.00 0.00 0.00 86 1014.2
20260904111432 81 7 0.0 2.0 0.00 0.00 0.00 86 1014.1